When you browse on this site, cookies collect data to enhance your experience and personalize the content and advertising you see.
Visit our Privacy Policy to learn more. By continuing to use the site, you agree to this use of cookies and data.
  • In Austria
  • List of Countries
  • For 7 days
  • Water Temperature
  • Satellite Maps
  • Weather Map
  • News
  • Weather Widgets
  • user-avatar
    Login

    Hourly Weather Katarzynki

    Today, 21 February, Thursday

    Time Temperature Precipitation Wind Pressure Humidity
    00:00 +6°C° 0 mm 2 mps 762 mmHg 87%
    01:00 +5°C° 0 mm 2 mps 762 mmHg 91%
    02:00 +5°C° 0 mm 2 mps 762 mmHg 89%
    03:00 +4°C° 0 mm 3 mps 762 mmHg 87%
    04:00 +4°C° 0 mm 3 mps 761 mmHg 86%
    05:00 +4°C° 0 mm 3 mps 761 mmHg 86%
    06:00 +4°C° 0 mm 3 mps 761 mmHg 86%
    07:00 +4°C° 0 mm 4 mps 761 mmHg 86%
    08:00 +5°C° 0.1 mm 4 mps 761 mmHg 84%
    09:00 +5°C° 0.1 mm 4 mps 761 mmHg 82%
    10:00 +6°C° 0.1 mm 4 mps 761 mmHg 80%
    11:00 +6°C° 0.2 mm 5 mps 761 mmHg 80%
    12:00 +6°C° 0.2 mm 5 mps 761 mmHg 80%
    13:00 +7°C° 0.2 mm 6 mps 760 mmHg 79%
    14:00 +7°C° 0.2 mm 5 mps 760 mmHg 80%
    15:00 +7°C° 0.2 mm 5 mps 760 mmHg 81%
    16:00 +7°C° 0.2 mm 5 mps 760 mmHg 82%
    17:00 +7°C° 0.2 mm 5 mps 760 mmHg 84%
    18:00 +7°C° 0.2 mm 5 mps 760 mmHg 86%
    19:00 +7°C° 0.2 mm 5 mps 760 mmHg 88%
    20:00 +7°C° 0.4 mm 5 mps 760 mmHg 89%
    21:00 +7°C° 0.4 mm 4 mps 760 mmHg 90%
    22:00 +7°C° 0.4 mm 4 mps 760 mmHg 91%
    23:00 +7°C° 0.2 mm 4 mps 761 mmHg 90%

    Tomorrow, 22 February, Friday

    Time Temperature Precipitation Wind Pressure Humidity
    00:00 +7°C° 0.2 mm 5 mps 761 mmHg 90%
    01:00 +7°C° 0.2 mm 5 mps 762 mmHg 90%
    02:00 +6°C° 0.3 mm 5 mps 763 mmHg 87%
    03:00 +5°C° 0.3 mm 5 mps 763 mmHg 84%
    04:00 +3°C° 0.3 mm 6 mps 764 mmHg 81%
    05:00 +1°C° 0 mm 5 mps 766 mmHg 78%
    06:00 0°C° 0 mm 5 mps 767 mmHg 76%
    07:00 -1°C° 0 mm 5 mps 768 mmHg 74%
    08:00 -1°C° 0 mm 5 mps 769 mmHg 67%
    09:00 -1°C° 0 mm 4 mps 770 mmHg 60%
    10:00 -1°C° 0 mm 4 mps 772 mmHg 53%
    11:00 0°C° 0 mm 4 mps 772 mmHg 49%
    12:00 0°C° 0 mm 4 mps 773 mmHg 46%
    13:00 +2°C° 0 mm 3 mps 773 mmHg 42%
    14:00 +2°C° 0 mm 3 mps 774 mmHg 42%
    15:00 +2°C° 0 mm 3 mps 774 mmHg 41%
    16:00 +2°C° 0 mm 3 mps 774 mmHg 41%
    17:00 +2°C° 0 mm 2 mps 775 mmHg 45%
    18:00 +1°C° 0 mm 2 mps 775 mmHg 49%
    19:00 -1°C° 0 mm 2 mps 776 mmHg 53%
    20:00 -2°C° 0 mm 2 mps 776 mmHg 53%
    21:00 -2°C° 0 mm 2 mps 776 mmHg 53%
    22:00 -2°C° 0 mm 2 mps 777 mmHg 53%
    23:00 -2°C° 0 mm 2 mps 777 mmHg 52%

    Day after tomorrow, 23 February, Saturday

    Time Temperature Precipitation Wind Pressure Humidity
    00:00 -2°C° 0 mm 2 mps 777 mmHg 51%
    01:00 -3°C° 0 mm 2 mps 777 mmHg 51%
    02:00 -3°C° 0 mm 2 mps 777 mmHg 50%
    03:00 -3°C° 0 mm 2 mps 777 mmHg 50%
    04:00 -1°C° 0 mm 1 mps 776 mmHg 50%
    05:00 -1°C° 0 mm 1 mps 777 mmHg 50%
    06:00 -1°C° 0 mm 1 mps 777 mmHg 50%
    07:00 -1°C° 0 mm 1 mps 777 mmHg 51%
    08:00 0°C° 0 mm 1 mps 777 mmHg 46%
    09:00 +1°C° 0 mm 1 mps 777 mmHg 41%
    10:00 +1°C° 0 mm 2 mps 778 mmHg 36%
    11:00 +2°C° 0 mm 2 mps 777 mmHg 32%
    12:00 +3°C° 0 mm 2 mps 777 mmHg 29%
    13:00 +3°C° 0 mm 2 mps 777 mmHg 26%
    14:00 +4°C° 0 mm 1 mps 776 mmHg 27%
    15:00 +4°C° 0 mm 1 mps 776 mmHg 28%
    16:00 +4°C° 0 mm 1 mps 776 mmHg 29%
    17:00 +3°C° 0 mm 1 mps 776 mmHg 31%
    18:00 +2°C° 0 mm 1 mps 775 mmHg 34%
    19:00 +1°C° 0 mm 1 mps 775 mmHg 37%
    20:00 +1°C° 0 mm 1 mps 775 mmHg 37%
    21:00 +1°C° 0 mm 1 mps 775 mmHg 38%
    22:00 +1°C° 0 mm 1 mps 775 mmHg 38%
    23:00 +1°C° 0 mm 1 mps 775 mmHg 38%

    24 February, Sunday

    Time Temperature Precipitation Wind Pressure Humidity
    00:00 +1°C° 0 mm 1 mps 775 mmHg 39%
    01:00 +1°C° 0 mm 1 mps 775 mmHg 39%
    02:00 +1°C° 0 mm 1 mps 774 mmHg 39%
    03:00 +1°C° 0 mm 1 mps 774 mmHg 39%
    04:00 +1°C° 0 mm 1 mps 774 mmHg 40%
    05:00 +1°C° 0 mm 1 mps 774 mmHg 40%
    06:00 +1°C° 0 mm 1 mps 774 mmHg 40%
    07:00 -1°C° 0 mm 2 mps 773 mmHg 40%
    08:00 +1°C° 0 mm 2 mps 773 mmHg 38%
    09:00 +2°C° 0 mm 2 mps 773 mmHg 36%
    10:00 +3°C° 0 mm 3 mps 773 mmHg 34%
    11:00 +4°C° 0 mm 3 mps 773 mmHg 35%
    12:00 +5°C° 0 mm 3 mps 773 mmHg 37%
    13:00 +8°C° 0 mm 3 mps 773 mmHg 38%
    14:00 +8°C° 0 mm 3 mps 772 mmHg 43%
    15:00 +8°C° 0 mm 2 mps 772 mmHg 48%
    16:00 +7°C° 0 mm 2 mps 772 mmHg 53%
    17:00 +6°C° 0 mm 2 mps 772 mmHg 58%
    18:00 +5°C° 0 mm 2 mps 772 mmHg 64%
    19:00 +4°C° 0 mm 2 mps 772 mmHg 70%
    20:00 +3°C° 0 mm 2 mps 772 mmHg 72%
    21:00 +3°C° 0 mm 2 mps 772 mmHg 74%
    22:00 +3°C° 0 mm 2 mps 773 mmHg 77%
    23:00 +2°C° 0 mm 2 mps 773 mmHg 77%

    25 February, Monday

    Time Temperature Precipitation Wind Pressure Humidity
    00:00 +2°C° 0 mm 2 mps 773 mmHg 78%
    01:00 +2°C° 0 mm 2 mps 773 mmHg 79%
    02:00 +1°C° 0 mm 2 mps 773 mmHg 81%
    03:00 +1°C° 0 mm 2 mps 772 mmHg 83%
    04:00 +1°C° 0 mm 2 mps 772 mmHg 85%
    05:00 +1°C° 0 mm 2 mps 772 mmHg 88%
    06:00 +1°C° 0 mm 2 mps 772 mmHg 90%
    07:00 +2°C° 0 mm 1 mps 772 mmHg 93%
    08:00 +2°C° 0 mm 2 mps 773 mmHg 88%
    09:00 +4°C° 0 mm 2 mps 773 mmHg 84%
    10:00 +5°C° 0 mm 2 mps 774 mmHg 79%
    11:00 +7°C° 0 mm 2 mps 774 mmHg 73%
    12:00 +9°C° 0 mm 1 mps 774 mmHg 67%
    13:00 +11°C° 0 mm 1 mps 773 mmHg 61%
    14:00 +11°C° 0 mm 1 mps 773 mmHg 61%
    15:00 +10°C° 0 mm 0 mps 773 mmHg 62%
    16:00 +10°C° 0 mm 0 mps 772 mmHg 62%
    17:00 +9°C° 0 mm 0 mps 772 mmHg 67%
    18:00 +7°C° 0 mm 0 mps 772 mmHg 72%
    19:00 +6°C° 0 mm 0 mps 772 mmHg 78%
    20:00 +6°C° 0 mm 0 mps 772 mmHg 80%
    21:00 +5°C° 0 mm 0 mps 772 mmHg 82%
    22:00 +5°C° 0 mm 0 mps 772 mmHg 84%
    23:00 +5°C° 0 mm 1 mps 772 mmHg 86%

    26 February, Tuesday

    Time Temperature Precipitation Wind Pressure Humidity
    00:00 +5°C° 0 mm 1 mps 772 mmHg 88%
    01:00 +5°C° 0 mm 1 mps 771 mmHg 89%
    02:00 +4°C° 0 mm 2 mps 771 mmHg 91%
    03:00 +4°C° 0 mm 2 mps 770 mmHg 92%
    04:00 +3°C° 0 mm 2 mps 770 mmHg 93%
    05:00 +3°C° 0 mm 2 mps 770 mmHg 93%
    06:00 +3°C° 0 mm 2 mps 769 mmHg 93%
    07:00 +3°C° 0 mm 2 mps 769 mmHg 93%
    08:00 +3°C° 0 mm 3 mps 769 mmHg 84%
    09:00 +5°C° 0 mm 3 mps 769 mmHg 76%
    10:00 +6°C° 0 mm 4 mps 768 mmHg 67%
    11:00 +8°C° 0 mm 4 mps 768 mmHg 62%
    12:00 +10°C° 0 mm 4 mps 768 mmHg 57%
    13:00 +10°C° 0 mm 5 mps 767 mmHg 53%
    14:00 +12°C° 0 mm 5 mps 767 mmHg 54%
    15:00 +12°C° 0 mm 4 mps 767 mmHg 55%
    16:00 +12°C° 0 mm 4 mps 766 mmHg 56%
    17:00 +11°C° 0 mm 4 mps 766 mmHg 62%
    18:00 +9°C° 0 mm 3 mps 766 mmHg 69%
    19:00 +8°C° 0 mm 3 mps 766 mmHg 75%
    20:00 +7°C° 0 mm 2 mps 766 mmHg 80%
    21:00 +6°C° 0 mm 2 mps 767 mmHg 84%
    22:00 +5°C° 0 mm 2 mps 767 mmHg 89%
    23:00 +5°C° 0 mm 2 mps 767 mmHg 91%
    Show more